Location: Harwich
(41.6860°N, 70.0760°W)
Time: 12:04:02
(UTC-04:00)

Cosmos 2228 - Visible Passes

Search period start: 29 August 2014 00:00
Search period end: 08 September 2014 00:00
Orbit: 597 x 624 km, 82.5° (Epoch: 29 August)

Date Brightness Start Highest point End Pass type
(mag) Time Alt. Az. Time Alt. Az. Time Alt. Az.
29 Aug 4.1 20:00:29 10° SSW 20:04:45 51° W 20:09:04 10° N visible
30 Aug 5.3 20:15:42 10° SW 20:19:32 29° WNW 20:23:26 10° NNW visible
31 Aug 6.2 20:31:25 10° WSW 20:34:25 18° WNW 20:37:27 10° NNW visible
01 Sep 7.0 05:01:58 10° NE 05:03:14 11° ENE 05:04:29 10° E visible
01 Sep 6.8 20:48:32 10° WNW 20:49:23 10° WNW 20:50:14 10° NW visible
02 Sep 6.3 05:15:04 10° NNE 05:18:11 19° ENE 05:21:17 10° ESE visible
03 Sep 5.3 05:29:07 10° NNE 05:33:03 31° ENE 05:36:56 10° SE visible
03 Sep 5.0 19:36:32 10° SW 19:40:35 36° WNW 19:44:41 10° N visible
04 Sep 6.1 19:52:02 10° WSW 19:55:26 21° WNW 19:58:51 10° NNW visible
05 Sep 6.7 20:08:19 10° W 20:10:21 13° WNW 20:12:24 10° NW visible
06 Sep 6.3 04:36:33 10° NNE 04:39:11 15° ENE 04:41:46 10° ESE visible
07 Sep 5.5 04:50:24 10° NNE 04:54:04 25° ENE 04:57:42 10° SE visible
